Glens Falls, NY

8:02 AM EDT on October 15, 2019 (GMT -0400)
Bennett Memorial

Weather History for KGFL - August, 2019

Change the Weather History Date:

Monday, August 19, 2019

  Actual Average Record
Temperature  
Mean Temperature 75 °F 67 °F  
Max Temperature 82 °F 79 °F 94 °F (1916)
Min Temperature 68 °F 55 °F 41 °F (1977)
Degree Days  
Heating Degree Days 0 1  
Month to date heating degree days 19  
Since 1 June heating degree days 130  
Since 1 July heating degree days 40  
Cooling Degree Days 10 3  
Month to date cooling degree days 73  
Year to date cooling degree days 293  
Since 1 June cooling degree days 281  
Growing Degree Days 25 (Base 50)    
Moisture  
Dew Point 67 °F    
Average Humidity 83    
Maximum Humidity 96    
Minimum Humidity 56    
Precipitation  
Precipitation 0.00 in 0.12 in 1.53 in (2008)
Month to date precipitation 2.42  
Year to date precipitation 24.55  
Sea Level Pressure  
Sea Level Pressure 29.94 in    
Wind  
Wind Speed 6 mph ()    
Max Wind Speed 10 mph    
Max Gust Speed -    
Visibility 10.0 miles    
Events      
T = Trace of Precipitation, MM = Missing Value Source: Averaged Metar Reports

Daily Weather History Graph

Daily Weather History Graph

Search for Another Location

Airport or City:

Astronomy

Aug. 19, 2019 Rise Set
Actual Time 6:03 AM EDT 7:51 PM EDT
Civil Twilight 5:33 AM EDT 8:21 PM EDT
Nautical Twilight 4:56 AM EDT 8:59 PM EDT
Astronomical Twilight 4:15 AM EDT 9:38 PM EDT
Moon 10:05 PM EDT (8/19) 9:48 AM EDT (8/19)
Length of Visible Light 14h 48m
Length of Day
13h 47m
Waning Gibbous, 85% of the Moon is Illuminated
Aug 19
Waning Gibbous
Aug 23
Last Quarter
Aug 30
New
Sep 5
First Quarter
Sep 14
Full

Hourly Weather History & Observations

Time (EDT) Temp. Heat Index Dew Point Humidity Pressure Visibility Wind Dir Wind Speed Gust Speed Precip Events Conditions
12:53 AM 69.1 °F - 66.9 °F 93% 29.91 in 10.0 mi SW 4.6 mph - N/A   Overcast
1:53 AM 69.1 °F - 66.9 °F 93% 29.92 in 10.0 mi South 5.8 mph - N/A   Scattered Clouds
2:22 AM 68.0 °F - 66.9 °F 96% 29.93 in 10.0 mi South 8.1 mph - N/A   Mostly Cloudy
2:53 AM 69.1 °F - 66.9 °F 93% 29.92 in 10.0 mi South 5.8 mph - N/A   Overcast
3:53 AM 68.0 °F - 66.0 °F 93% 29.93 in 10.0 mi South 4.6 mph - N/A   Overcast
4:53 AM 68.0 °F - 66.0 °F 93% 29.94 in 10.0 mi South 6.9 mph - N/A   Mostly Cloudy
5:53 AM 68.0 °F - 66.0 °F 93% 29.94 in 10.0 mi South 4.6 mph - N/A   Overcast
6:53 AM 68.0 °F - 64.9 °F 90% 29.96 in 10.0 mi SSW 5.8 mph - N/A   Mostly Cloudy
7:00 AM 68.0 °F - 64.9 °F 90% 29.97 in 10.0 mi SSW 8.1 mph - N/A   Mostly Cloudy
7:31 AM 69.1 °F - 64.9 °F 87% 29.98 in 10.0 mi SW 9.2 mph - N/A   Mostly Cloudy
8:53 AM 69.1 °F - 66.0 °F 90% 29.96 in 10.0 mi South 9.2 mph - N/A   Overcast
9:53 AM 72.0 °F - 66.0 °F 81% 29.96 in 10.0 mi SSW 6.9 mph - N/A   Mostly Cloudy
10:09 AM 73.0 °F - 66.9 °F 81% 29.96 in 10.0 mi South 8.1 mph - N/A   Partly Cloudy
10:53 AM 75.0 °F - 66.0 °F 73% 29.95 in 10.0 mi South 6.9 mph - N/A   Partly Cloudy
11:53 AM 78.1 °F - 68.0 °F 71% 29.95 in 10.0 mi South 5.8 mph - N/A   Clear
12:53 PM 80.1 °F 82.9 °F 69.1 °F 69% 29.95 in 10.0 mi SSE 5.8 mph - N/A   Clear
1:53 PM 80.1 °F 82.9 °F 69.1 °F 69% 29.94 in 10.0 mi South 3.5 mph - N/A   Mostly Cloudy
2:53 PM 82.9 °F 85.0 °F 66.0 °F 56% 29.93 in 10.0 mi South 10.4 mph - N/A   Scattered Clouds
3:53 PM 82.9 °F 85.4 °F 66.9 °F 58% 29.91 in 10.0 mi SSW 10.4 mph - N/A   Partly Cloudy